Portada
METAR-TAF:

METAR-TAF

Aeroports :

Tirupati, Índia

latitud: 13-38-16N, longitud: 79-32-50E, altitud: 107 m

Observació

L'informe es va fer fa 44 minuts, a les 14:30 UTC
Vent 5 kt del Est/Nord-Est
Temperatura 31°C
Humitat 59%
Pressió 1010 hPa
Visibilitat: 6000 m
Escasses núvols a una alçada de 2000 ft

METAR: VOTP 241430Z 06005KT 6000 FEW020 31/22 Q1010

Hora: 20:44 (15:14 UTC)


TAF: manca

Observacions i pronòstics meteorològics de més de 4000 aeroports (METAR i TAF).

Les estacions disponibles són els punts grocs i vermells al mapa.

Posi el ratolí al punt desitjat per veure el nom de l'estació.

Feu clic per veure les observacions i els pronòstics meteorològics.

Per canviar el mapa: feu clic els botons verds amb una creu de color negre per apropar; al botó verd amb un guió per allunyar la imatge; o en les fletxes verdes per a mapes adjacents.


METAR-TAF: